Home > Weather > Lancy > Past weeks

Flag for Switzerland Past Weather in Lancy, Geneva, Switzerland — Yesterday and Last 2 Weeks

Now
68 °F

Scattered clouds.


Feels Like: 68 °F
Forecast: 52 / 73 °F
Wind: 6 mph from Northwest

Location: Geneva Cointrin Airport

Current Time: Jun 26, 2016 at 9:05:19 PM

Latest Report: Jun 26, 2016 at 8:20 PM


Visibility: N/A

Pressure: 30.09 "Hg

Humidity: 49%

Dew Point: 48 °F

Location of LancyLocation

Past Weather in Lancy — Graph

°F

Lancy Temperature Yesterday

Maximum temperature yesterday: 77 °F (at 2:20 PM)
Minimum temperature yesterday: 63 °F (at 7:20 AM)
Average temperature yesterday: 69 °F

High & Low Weather Summary for the Past Weeks

 TemperatureHumidityPressure
High90 °F (Jun 23, 6:20 PM)100% (Jun 12, 5:20 AM)30.27 "Hg (Jun 12, 5:20 AM)
Low48 °F (Jun 20, 4:20 AM)29% (Jun 24, 4:20 PM)29.59 "Hg (Jun 15, 5:50 PM)
Average64 °F73%29.99 "Hg
* Reported Jun 11 8:20 PM — Jun 26 8:20 PM, Lancy, Weather by CustomWeather, © 2016

Note: Actual official high and low records may vary slightly from our data, if they occured in-between our weather recording intervals... More about our weather records

Advertising

Lancy Weather History for the Previous 24 Hours

Scroll right to see more
 ConditionsComfort  
Time TempWeatherWind HumidityBarometerVisibility
8:20 PM
Sun, Jun 26
68 °FScattered clouds.6 mph49%30.09 "HgN/A
7:20 PM70 °FScattered clouds.7 mph50%30.09 "HgN/A
6:50 PM72 °FPassing clouds.6 mph44%30.09 "HgN/A
6:20 PM72 °FPassing clouds.8 mph47%30.09 "HgN/A
5:50 PM72 °FScattered clouds.6 mph47%30.09 "HgN/A
5:20 PM70 °FScattered clouds.3 mph50%30.09 "HgN/A
4:50 PM70 °FScattered clouds.5 mph50%30.09 "HgN/A
4:20 PM70 °FScattered clouds.6 mph50%30.09 "HgN/A
3:50 PM72 °FScattered clouds.6 mph50%30.09 "HgN/A
3:20 PM70 °FPartly sunny.7 mph50%30.09 "HgN/A
2:50 PM72 °FPartly sunny.3 mph44%30.09 "HgN/A
2:20 PM72 °FScattered clouds.5 mph50%30.09 "HgN/A
1:50 PM70 °FScattered clouds.9 mph50%30.09 "HgN/A
1:20 PM70 °FScattered clouds.9 mph46%30.09 "HgN/A
12:50 PM70 °FPassing clouds.8 mph53%30.09 "HgN/A
12:20 PM70 °FPassing clouds.8 mph46%30.09 "HgN/A
11:50 AM70 °FScattered clouds.3 mph50%30.09 "HgN/A
11:20 AM66 °FPartly sunny.5 mph56%30.12 "HgN/A
10:50 AM64 °FPartly sunny.6 mph64%30.12 "HgN/A
10:20 AM66 °FPartly sunny.6 mph60%30.12 "HgN/A
9:50 AM64 °FPartly sunny.3 mph64%30.12 "HgN/A
9:20 AM63 °FPartly sunny.2 mph73%30.12 "HgN/A
8:50 AM63 °FScattered clouds.2 mph73%30.12 "HgN/A
8:20 AM61 °FScattered clouds.2 mph77%30.09 "HgN/A
7:50 AM57 °FPassing clouds.1 mph82%30.09 "HgN/A
7:20 AM57 °FPassing clouds.2 mph82%30.09 "HgN/A
6:50 AM55 °FPassing clouds.1 mph88%30.09 "HgN/A
6:20 AM54 °FPassing clouds.1 mph88%30.09 "HgN/A
5:50 AM54 °FPassing clouds.2 mph88%30.09 "HgN/A
5:20 AM55 °FPassing clouds.3 mph82%30.09 "HgN/A
4:50 AM55 °FPassing clouds.2 mph82%30.09 "HgN/A
4:20 AM55 °FPassing clouds.2 mph82%30.09 "HgN/A
3:50 AM55 °FPassing clouds.2 mph88%30.09 "HgN/A
2:50 AM57 °FPassing clouds.2 mph82%30.09 "HgN/A
2:20 AM57 °FPassing clouds.2 mph82%30.09 "HgN/A
1:50 AM59 °FPassing clouds.1 mph77%30.09 "HgN/A
1:20 AM61 °FPassing clouds.3 mph72%30.09 "HgN/A
12:50 AM63 °FPassing clouds.5 mph68%30.09 "HgN/A
12:20 AM64 °FPassing clouds.5 mph64%30.09 "HgN/A
11:50 PM
Sat, Jun 25
64 °FPassing clouds.6 mph68%30.09 "HgN/A
11:20 PM66 °FPassing clouds.5 mph60%30.09 "HgN/A
10:50 PM66 °FPassing clouds.5 mph64%30.09 "HgN/A
10:20 PM66 °FPartly sunny.7 mph64%30.09 "HgN/A
9:50 PM68 °FPartly sunny.6 mph56%30.07 "HgN/A
9:20 PM66 °FPartly sunny.6 mph64%30.07 "HgN/A
Weather by CustomWeather, © 2016

See weather overviewHow to use our weather pages